This is the latest recevied weather packets stored in our database for station/object BG5HLN-13. If no packets are shown the sender has not sent any weather packets the latest 1 day(s).
| Time | Temp. | Humidity | Pressure | Rain* | Wind** | Luminosity | Snow |
|---|---|---|---|---|---|---|---|
| 1778119389 | 25.56° C | 76% | 1010.1 hPa | 0 mm | - | - | - |
| 1778118187 | 25.56° C | 77% | 1010 hPa | 0 mm | - | - | - |
| 1778117588 | 25° C | 78% | 1010.1 hPa | 0 mm | - | - | - |
| 1778116989 | 25° C | 77% | 1010.1 hPa | 0 mm | - | - | - |
| 1778116386 | 25° C | 77% | 1010 hPa | 0 mm | - | - | - |
| 1778115189 | 24.44° C | 78% | 1010.1 hPa | 0 mm | - | - | - |
| 1778114586 | 24.44° C | 79% | 1010.1 hPa | 0 mm | - | - | - |
| 1778113989 | 23.89° C | 79% | 1010 hPa | 0 mm | - | - | - |
| 1778113389 | 23.89° C | 79% | 1009.9 hPa | 0 mm | - | - | - |
| 1778112789 | 23.89° C | 79% | 1010 hPa | 0 mm | - | - | - |
| 1778112786 | 23.89° C | 79% | 1009.9 hPa | 0 mm | - | - | - |
| 1778110389 | 23.33° C | 81% | 1010.4 hPa | 0 mm | - | - | - |
| 1778109789 | 22.78° C | 82% | 1010.3 hPa | 0 mm | - | - | - |
| 1778107989 | 22.22° C | 82% | 1010.3 hPa | 0 mm | - | - | - |
| 1778106789 | 21.67° C | 82% | 1010.2 hPa | 0 mm | - | - | - |
| 1778106189 | 21.67° C | 82% | 1010.1 hPa | 0 mm | - | - | - |
| 1778103786 | 21.67° C | 82% | 1009.9 hPa | 0 mm | - | - | - |
| 1778102588 | 21.67° C | 82% | 1009.8 hPa | 0 mm | - | - | - |
| 1778098988 | 21.67° C | 82% | 1009.3 hPa | 0 mm | - | - | - |
| 1778098388 | 21.67° C | 82% | 1009.2 hPa | 0 mm | - | - | - |
| 1778097788 | 21.67° C | 82% | 1009.2 hPa | 0 mm | - | - | - |
| 1778097188 | 21.11° C | 82% | 1009.2 hPa | 0 mm | - | - | - |
| 1778095988 | 21.11° C | 82% | 1009.1 hPa | 0 mm | - | - | - |
| 1778094188 | 21.11° C | 82% | 1009.1 hPa | 0 mm | - | - | - |
| 1778092388 | 21.67° C | 81% | 1008.9 hPa | 0 mm | - | - | - |
* Rain latest hour (hover to see other rain measurements)
** Current wind speed in m/s (hover to see current wind gust speed)